Lexington Weather

Lexington, Massachusetts, USA

54°F
5/18/2024 12:24am 
  • Lexington Conditions: Clear
  • Temperature: 54.1°F / 12.3°CColder 1.3°F than last hour.
  • Dew Point: 50.0°FDecreased 0.4°Fsince last hour.
  • Relative Humidity: 86%Increased 3.0% since last hour.
  • Wind: Calm, 10-min avg: Calm, gust: None
  • Barometer: 29.96 in Steady
  • Visibility: 10 miles
  • Rain Today: 0.00 in
  •   

Regional Weather Roundup
for Boston, MA

        
000
ASUS41 KBOX 120810
RWRBOX

REGIONAL WEATHER ROUNDUP
NATIONAL WEATHER SERVICE BOSTON/NORTON MA
400 AM EDT SUN MAY 12 2024

NOTE:  "FAIR" INDICATES FEW OR NO CLOUDS BELOW 12,000 FEET WITH NO 
SIGNIFICANT WEATHER AND/OR OBSTRUCTIONS TO VISIBILITY.

MAZALL-120900-
EASTERN MASSACHUSETTS
  
CITY           SKY/WX    TMP DP  RH WIND       PRES   REMARKS
BOSTON         CLOUDY    44  40  85 SW6       29.88S                  
BEVERLY        MOCLDY    37  35  92 CALM      29.87S                  
LAWRENCE       MOCLDY    40  38  93 S3        29.89S                  
BEDFORD        MOCLDY    38  37  97 CALM      29.86S                  
NORWOOD        MOCLDY    38  37  97 CALM      29.88S FOG              
MARSHFIELD     MOCLDY    39  37  93 W3        29.88R                  
PLYMOUTH       MOCLDY    37  35  92 CALM      29.87S                  
TAUNTON        CLOUDY    40  36  86 CALM      29.88S                  
NEW BEDFORD    MOCLDY    38  37  97 CALM      29.88R                  
$$

MAZALL-120900-
CAPE COD AND THE ISLANDS
  
CITY           SKY/WX    TMP DP  RH WIND       PRES   REMARKS
FALMOUTH       NOT AVBL                                               
HYANNIS        CLOUDY    38  37  97 CALM      29.87R                  
CHATHAM        CLOUDY    42  39  89 CALM      29.88S                  
PROVINCETOWN   PTCLDY    35  35 100 CALM      29.88S                  
NANTUCKET      CLOUDY    44  41  89 CALM      29.88R                  
MARTHAS VNYRD  CLOUDY    44  43  96 CALM      29.88S                  
$$
 
MAZALL-120900-
CENTRAL AND WESTERN MASSACHUSETTS
  
CITY           SKY/WX    TMP DP  RH WIND       PRES   REMARKS
WORCESTER      MOCLDY    42  36  79 SW3       29.85S                  
FITCHBURG      CLOUDY    42  38  85 CALM      29.87S                  
ORANGE         CLOUDY    46  41  82 CALM      29.87S                  
SPRINGFIELD    CLOUDY    49  42  79 CALM      29.83S                  
WESTFIELD      CLOUDY    48  43  82 S3        29.85F                  
NORTH ADAMS    LGT RAIN  50  43  77 E5        29.84S                  
PITTSFIELD     CLOUDY    46  41  82 SW7       29.83S                  
$$
 
RIZALL-120900-
RHODE ISLAND
  
CITY           SKY/WX    TMP DP  RH WIND       PRES   REMARKS
PROVIDENCE     MOCLDY    43  42  97 CALM      29.88S                  
NEWPORT        MOCLDY    41  40  96 CALM      29.87S                  
BLOCK ISLAND   CLOUDY    45  41  87 S5        29.88S                  
SMITHFIELD     MOCLDY    40  40 100 CALM      29.87S                  
WESTERLY       CLOUDY    45  42  89 CALM      29.87S                  
$$
 
CTZALL-120900-
CONNECTICUT
  
CITY           SKY/WX    TMP DP  RH WIND       PRES   REMARKS
BRADLEY INTL   MOCLDY    50  42  74 S5        29.86S                  
HARTFORD       MOCLDY    49  42  77 CALM      29.86F                  
PLAINVILLE     CLOUDY    47  47 100 CALM      29.86S                  
BRIDGEPORT     CLOUDY    50  44  80 S6        29.86S                  
DANBURY        CLOUDY    48  42  80 CALM      29.86S                  
GROTON         CLOUDY    48  44  86 S5        29.87S                  
NEW HAVEN      CLOUDY    51  44  77 CALM      29.86S                  
CHESTER        CLOUDY    46  45  93 CALM      29.86F                  
MERIDEN        CLOUDY    48  43  82 CALM      29.86F                  
WILLIMANTIC    PTCLDY    42  40  92 CALM      29.87S                  
OXFORD         LGT RAIN  45  43  93 CALM      29.86S                  
$$

MEZ002-015-021-024-NHZ003-005-008-011-012-014-VTZ005-008-120900-
NORTHERN NEW ENGLAND
  
CITY           SKY/WX    TMP DP  RH WIND       PRES   REMARKS
PORTLAND ME    CLOUDY    38  36  92 CALM      29.87S                  
BANGOR ME      PTCLDY    37  36  96 CALM      29.86S                  
CONCORD NH     CLOUDY    41  38  89 CALM      29.87S                  
MANCHESTER NH  MOCLDY    41  38  89 CALM      29.86S                  
NASHUA NH      CLOUDY    40  32  73 CALM      29.88S                  
PORTSMOUTH NH  PTCLDY    39  38  95 CALM      29.86S                  
JAFFREY NH       N/A     43  38  82 CALM      29.85F                  
KEENE NH       CLOUDY    45  41  86 CALM      29.86S                  
BURLINGTON VT  CLOUDY    51  41  68 S3        29.81S                  
MT. WASHINGTON MOCLDY    27  21  80 E2          N/A                   
$$

NYZ052-076-120900-
EASTERN NEW YORK
  
CITY           SKY/WX    TMP DP  RH WIND       PRES   REMARKS
ALBANY         LGT RAIN  50  42  74 S12       29.84S                  
NEW YORK CITY  CLOUDY    50  41  71 S10       29.84S                  
$$
 
ANZALL-120900-
MARINE OBSERVATIONS
  
STATION/POSITION TIME  TEMP    WIND        PRES    VSBY  WAVE
                       AIR SEA DIR/SP/G                  HT/PER
                 (UTC) (F)     (DEG/KT/KT) (MB)    (MI)  (FT/S)
BOSTON BUOY      0750   47 50  250/  6/  8 1011.8R         4/ 8
BUZZARDS BAY     0700   47        CALM     1012.2S
NANTUCKET SOUND  0750   47 53  150/  4/  6 1011.3R         2/ 7
MASS BAY-STELLWA NOT AVBL
ISLE OF SHOALS   0700   47     210/  3/  4 1010.9F
S OF BLOCK IS    0756      49                N/A           4/ 8
$$

......................KEY.........................
  SKY/WX - SKY CONDITION/PRESENT WEATHER
  TMP    - TEMPERATURE IN FAHRENHEIT
  DWPT   - DEWPOINT IN FAHRENHEIT
  RH     - RELATIVE HUMIDITY IN PERCENT
  WIND   - DIRECTION AND SPEED IN MPH
  PRES   - MEAN SEA LEVEL PRESSURE IN INCHES OF HG
  WCI    - WIND CHILL INDEX
  VSB    - VISIBILITY IN MILES
  HX     - HEAT INDEX
  TC     - TEMPERATURE IN CELSIUS
  VRB    - VARIABLE WIND DIRECTION
  N/A    - NOT AVAILABLE
  
      

Other recent Regional Weather Roundups

Fri May 17, 11:10pm EDT

Fri May 17, 10:10pm EDT

Fri May 17, 9:10pm EDT

Fri May 17, 8:10pm EDT

Fri May 17, 7:10pm EDT

Fri May 17, 6:10pm EDT

Fri May 17, 5:10pm EDT

Fri May 17, 4:10pm EDT

Fri May 17, 3:10pm EDT

Fri May 17, 2:10pm EDT

Fri May 17, 1:10pm EDT

Fri May 17, 12:10pm EDT

Fri May 17, 11:10am EDT

Fri May 17, 10:10am EDT

Fri May 17, 9:10am EDT

Fri May 17, 8:10am EDT

Fri May 17, 7:10am EDT

Fri May 17, 6:10am EDT

Fri May 17, 5:10am EDT

Fri May 17, 4:10am EDT

Fri May 17, 3:10am EDT

Fri May 17, 2:10am EDT

Fri May 17, 1:10am EDT

Fri May 17, 12:10am EDT

Thu May 16, 11:10pm EDT

Thu May 16, 10:10pm EDT

Thu May 16, 9:10pm EDT

Thu May 16, 8:10pm EDT

Thu May 16, 7:10pm EDT

Thu May 16, 6:10pm EDT

Thu May 16, 5:10pm EDT

Thu May 16, 4:10pm EDT

Thu May 16, 3:10pm EDT

Thu May 16, 2:10pm EDT

Thu May 16, 1:10pm EDT

Thu May 16, 12:10pm EDT

Thu May 16, 11:10am EDT

Thu May 16, 10:10am EDT

Thu May 16, 9:10am EDT

Thu May 16, 8:10am EDT

Thu May 16, 7:10am EDT

Thu May 16, 6:10am EDT

Thu May 16, 5:10am EDT

Thu May 16, 4:10am EDT

Thu May 16, 3:10am EDT

Thu May 16, 2:10am EDT

Thu May 16, 1:10am EDT

Thu May 16, 12:10am EDT

Wed May 15, 11:10pm EDT

Wed May 15, 10:10pm EDT

Wed May 15, 9:10pm EDT

Wed May 15, 8:10pm EDT

Wed May 15, 7:10pm EDT

Wed May 15, 6:10pm EDT

Wed May 15, 5:10pm EDT

Wed May 15, 4:10pm EDT

Wed May 15, 3:10pm EDT

Wed May 15, 2:10pm EDT

Wed May 15, 1:10pm EDT

Wed May 15, 12:10pm EDT

Wed May 15, 11:10am EDT

Wed May 15, 10:10am EDT

Wed May 15, 9:10am EDT

Wed May 15, 8:10am EDT

Wed May 15, 7:10am EDT

Wed May 15, 6:10am EDT

Wed May 15, 5:10am EDT

Wed May 15, 4:10am EDT

Wed May 15, 3:10am EDT

Wed May 15, 2:10am EDT

Wed May 15, 1:10am EDT

Wed May 15, 12:10am EDT

Tue May 14, 11:10pm EDT

Tue May 14, 10:10pm EDT

Tue May 14, 9:10pm EDT

Tue May 14, 8:10pm EDT

Tue May 14, 7:10pm EDT

Tue May 14, 6:10pm EDT

Tue May 14, 5:10pm EDT

Tue May 14, 4:10pm EDT

Tue May 14, 3:10pm EDT

Tue May 14, 2:10pm EDT

Tue May 14, 1:10pm EDT

Tue May 14, 12:10pm EDT

Tue May 14, 11:10am EDT

Tue May 14, 10:10am EDT

Tue May 14, 9:10am EDT

Tue May 14, 8:10am EDT

Tue May 14, 7:10am EDT

Tue May 14, 6:10am EDT

Tue May 14, 5:10am EDT

Tue May 14, 4:10am EDT

Tue May 14, 3:10am EDT

Tue May 14, 2:10am EDT

Tue May 14, 1:10am EDT

Tue May 14, 12:10am EDT

Mon May 13, 11:10pm EDT

Mon May 13, 10:10pm EDT

Mon May 13, 9:10pm EDT

Mon May 13, 8:10pm EDT

Mon May 13, 7:10pm EDT

Mon May 13, 6:10pm EDT

Mon May 13, 5:10pm EDT

Mon May 13, 4:10pm EDT

Mon May 13, 3:10pm EDT

Mon May 13, 2:10pm EDT

Mon May 13, 1:10pm EDT

Mon May 13, 12:10pm EDT

Mon May 13, 11:10am EDT

Mon May 13, 10:10am EDT

Mon May 13, 9:10am EDT

Mon May 13, 8:10am EDT

Mon May 13, 7:10am EDT

Mon May 13, 6:10am EDT

Mon May 13, 5:10am EDT

Mon May 13, 4:10am EDT

Mon May 13, 3:10am EDT

Mon May 13, 2:10am EDT

Mon May 13, 1:10am EDT

Mon May 13, 12:10am EDT

Sun May 12, 11:10pm EDT

Sun May 12, 10:10pm EDT

Sun May 12, 9:10pm EDT

Sun May 12, 8:10pm EDT

Sun May 12, 7:10pm EDT

Sun May 12, 6:10pm EDT

Sun May 12, 5:10pm EDT

Sun May 12, 4:10pm EDT

Sun May 12, 3:10pm EDT

Sun May 12, 2:10pm EDT

Sun May 12, 1:10pm EDT

Sun May 12, 12:10pm EDT

Sun May 12, 11:10am EDT

Sun May 12, 10:10am EDT

Sun May 12, 9:10am EDT

Sun May 12, 8:10am EDT

Sun May 12, 7:10am EDT

Sun May 12, 6:10am EDT

Sun May 12, 5:10am EDT

Sun May 12, 3:10am EDT

Sun May 12, 2:10am EDT

Sun May 12, 1:10am EDT

Sun May 12, 12:10am EDT

Sat May 11, 11:10pm EDT

Sat May 11, 10:10pm EDT

Sat May 11, 9:10pm EDT

Sat May 11, 8:10pm EDT

Sat May 11, 7:10pm EDT

Sat May 11, 6:10pm EDT

Sat May 11, 5:10pm EDT

Sat May 11, 4:10pm EDT

Sat May 11, 3:10pm EDT

Sat May 11, 2:10pm EDT

Sat May 11, 1:10pm EDT

Sat May 11, 12:10pm EDT

Sat May 11, 11:10am EDT

Sat May 11, 10:10am EDT

Sat May 11, 9:10am EDT

Sat May 11, 8:10am EDT

Sat May 11, 7:10am EDT

Sat May 11, 6:10am EDT

Sat May 11, 5:10am EDT

Sat May 11, 4:10am EDT

Sat May 11, 3:10am EDT

Sat May 11, 2:10am EDT

Sat May 11, 1:10am EDT

Sat May 11, 12:10am EDT